EXPRESS-AM8

Last updated on Wed Mar 11 2026 00:02:53 GMT+0000 (Coordinated Universal Time)

1 40895U 15048A 26069.42962112 -.00000110 00000+0 00000+0 0 9995 2 40895 0.0232 247.9740 0000117 143.0135 277.7641 1.00272628 38355
UTC large
Height (km)
Speed (km/s)
/
Latitude / Longitude
Inclination (degrees)
Orbital Period (minutes)
Azimuth
Elevation
Range (km)
Doppler Factor

Next 0 passes for location: London (51.5072 / 0.1276)

Sorry there are no passes over London.